Location: Dead Woman Crossing
(43.5369°N, 106.3228°W)
Time: 00:10:00
(UTC+00:00)

AIST 2D - Visible Passes

Search period start: 28 June 2022 00:00
Search period end: 08 July 2022 00:00
Orbit: 433 x 449 km, 97.1° (Epoch: 27 June)

Date Brightness Start Highest point End Pass type
(mag) Time Alt. Az. Time Alt. Az. Time Alt. Az.
28 Jun ? 03:58:23 10° NE 04:00:55 20° E 04:02:16 16° SE visible
28 Jun ? 05:30:51 10° NNW 05:33:27 21° WNW 05:35:43 12° WSW visible
29 Jun ? 04:52:38 10° N 04:55:56 68° WNW 04:57:41 25° SSW visible
30 Jun ? 04:15:08 10° NNE 04:18:12 33° E 04:19:36 23° SE visible
30 Jun ? 05:48:45 10° NW 05:50:30 14° WNW 05:52:15 10° W visible
01 Jul ? 03:39:06 10° ENE 03:40:15 11° E 03:41:24 10° ESE visible
01 Jul ? 05:09:55 10° N 05:13:02 38° WNW 05:14:59 19° SW visible
02 Jul ? 04:32:04 10° NNE 04:35:22 59° E 04:36:53 28° S visible
03 Jul ? 03:55:02 10° NE 03:57:27 19° E 03:58:46 15° ESE visible
03 Jul ? 05:27:19 10° NNW 05:30:02 23° WNW 05:32:13 13° WSW visible
04 Jul ? 04:49:04 10° N 04:52:24 76° WNW 04:54:04 27° SSW visible
05 Jul ? 04:11:34 10° NNE 04:14:33 30° E 04:15:54 22° SE visible
05 Jul ? 05:44:56 10° NNW 05:46:54 15° WNW 05:48:53 10° WSW visible
06 Jul ? 03:35:55 10° E 03:36:30 10° E 03:37:05 10° E visible
06 Jul ? 05:06:09 10° N 05:09:20 42° WNW 05:11:11 21° SW visible
07 Jul ? 04:28:15 10° NNE 04:31:32 53° E 04:32:58 29° SSE visible
